This is the latest recevied weather packets stored in our database for station/object OM8AGG-10. If no packets are shown the sender has not sent any weather packets the latest 10 day(s).
| Time | Temp. | Humidity | Pressure | Rain* | Wind** | Luminosity | Snow |
|---|---|---|---|---|---|---|---|
| 1777943995 | 3.89° C | 92% | 1017.3 hPa | - | - | - | - |
| 1777943094 | 3.89° C | 94% | 1017.3 hPa | - | - | - | - |
| 1777942194 | 3.89° C | 94% | 1017.4 hPa | - | - | - | - |
| 1777941294 | 4.44° C | 96% | 1017.4 hPa | - | - | - | - |
| 1777940394 | 4.44° C | 92% | 1017.5 hPa | - | - | - | - |
| 1777939494 | 4.44° C | 91% | 1017.6 hPa | - | - | - | - |
| 1777938594 | 4.44° C | 89% | 1017.6 hPa | - | - | - | - |
| 1777937694 | 5° C | 89% | 1017.7 hPa | - | - | - | - |
| 1777936794 | 5° C | 87% | 1017.7 hPa | - | - | - | - |
| 1777935894 | 5° C | 87% | 1017.8 hPa | - | - | - | - |
| 1777934994 | 5.56° C | 86% | 1017.8 hPa | - | - | - | - |
| 1777934094 | 5.56° C | 84% | 1017.8 hPa | - | - | - | - |
| 1777933194 | 6.11° C | 82% | 1017.9 hPa | - | - | - | - |
| 1777932294 | 6.11° C | 80% | 1017.9 hPa | - | - | - | - |
| 1777931393 | 6.67° C | 78% | 1018 hPa | - | - | - | - |
| 1777930493 | 7.22° C | 73% | 1017.9 hPa | - | - | - | - |
| 1777929593 | 8.33° C | 68% | 1017.9 hPa | - | - | - | - |
| 1777928693 | 9.44° C | 62% | 1017.8 hPa | - | - | - | - |
| 1777927793 | 10° C | 59% | 1017.9 hPa | - | - | - | - |
| 1777926893 | 10° C | 59% | 1017.9 hPa | - | - | - | - |
| 1777925993 | 10° C | 58% | 1017.8 hPa | - | - | - | - |
| 1777925093 | 10.56° C | 57% | 1017.8 hPa | - | - | - | - |
| 1777924193 | 11.11° C | 54% | 1017.6 hPa | - | - | - | - |
| 1777923293 | 11.67° C | 53% | 1017.6 hPa | - | - | - | - |
| 1777922392 | 12.22° C | 52% | 1017.6 hPa | - | - | - | - |
* Rain since midnight (hover to see other rain measurements)
** Current wind speed in m/s (hover to see current wind gust speed)